EHI
0 0 0 0 0 0 0 0 0 0 0 0 0 0 0 0 0 0 0 0 0 0 0 0 0 0 0 0 0 0 0 0 0 0 0 0 0 0 0 0 0 0 0
0 0 0 0 0 0 0 0 0 0 0 0 0 0 0 0 0 0 0 0 0 0 0 0 0 0 0 0 0 0 0 0 0 0 0 0 0 0 0 0 0 0 0
0 0 0 0 0 0 0 0 0 0 0 0 0 0 0 0 0 0 0 0 0 0 0 0 0 0 0 0 0 0 0 0 0 0 0 0 0 0 0 0 0 0 0
0 0 0 0 0 0 0 0 0 0 0 0 0 0 0 0 0 0 0 0 0 0 0 0 0 0 0 0 0 0 0 0 0 0 0 0 0 0 0 0 0 0 0
0 0 0 0 0 0 0 0 0 0 0 0 0 0 0 0 0 0 0 0 0 0 0 0 0 0 0 0 0 0 0 0 0 0 0 0 0 0 0 0 0 0 0
0 0 0 0 0 0 0 0 0 0 0 0 0 0 0 0 0 0 0 0 0 0 0 0 0 0 0 0 0 0 0 0 0 0 0 0 0 0 0 0 0 0 0
0 0 0 0 0 0 0 0 0 0 0 0 0 0 0 0 0 0 0 0 0 0 0 0 0 0 0 0 0 0 0 0 0 0 0 0 0 0 0 0 0 0 0
0 0 0 0 0 0 0 0 0 0 0 0 0 0 0 0 0 0 0 0 0 0 0 0 0 0 0 0 0 0 0 0 0 0 0 0 0 0 0 0 0 0 0
0 0 0 0 0 0 0 0 0 0 0 0 0 0 0 0 0 0 0 0 0 0 0 0 0 0 0 0 0 0 0 0 0 0 0 0 0 0 0 0 0 0 0
0 0 0 0 0 0 0 0 0 0 0 0 0 0 0 0 0 0 0 0 0 0 0 0 0 0 0 0 0 0 0 0 0 0 0 0 0 0 0 0 0 0 0
0 0 0 0 0 0 0 0 0 0 0 0 0 0 0 0 0 0 0 0 0 0 0 0 0 0 0 0 0 0 0 0 0 0 0 0 0 0 0 0 0 0 0
0 0 0 0 0 0 0 0 0 0 0 0 0 0 0 0 0 0 0 0 0 0 0 0 0 0 0 0 0 0 0 0 0 0 0 0 0 0 0 0 0 0 0
0 0 0 0 0 0 0 0 0 0 0 0 0 0 0 0 0 0 0 0 0 0 0 0 0 0 0 0 0 0 0 0 0 0 0 0 0 0 0 0 0 0 0
0 0 0 0 0 0 0 0 0 0 0 0 0 0 0 0 0 0 0 0 0 0 0 0 0 0 0 0 0 0 0 0 0 0 0 0 0 0 0 0 0 0 0
0 0 0 0 0 0 0 0 0 0 0 0 0 0 0 0 0 0 0 0 0 0 0 0 0 0 0 0 0 0 0 0 0 0 0 0 0 0 0 0 0 0 0
0 0 0 0 0 0 0 0 0 0 0 0 0 0 0 0 0 0 0 0 0 0 0 0 0 0 0 0 0 0 0 0 0 0 0 0 0 0 0 0 0 0 0
0 0 0 0 0 0 0 0 0 0 0 0 0 0 0 0 0 0 0 0 0 0 0 0 0 0 0 0 0 0 0 0 0 0 0 0 0 0 0 0 0 0 0
0 0 0 0 0 0 0 0 0 0 0 0 0 0 0 0 0 0 0 0 0 0 0 0 0 0 0 0 0 0 0 0 0 0 0 0 0 0 0 0 0 0 0
0 0 0 0 0 0 0 0 0 0 0 0 0 0 0 0 0 0 0 0 0 0 0 0 0 0 0 0 0 0 0 0 0 0 0 0 0 0 0 0 0 0 0
0 0 0 0 0 0 0 0 0 0 0 0 0 0 0 0 0 0 0 0 0 0 0 0 0 0 0 0 0 0 0 0 0 0 0 0 0 0 0 0 0 0 0
0 0 0 0 0 0 0 0 0 0 0 0 0 0 0 0 0 0 0 0 0 0 0 0 0 0 0 0 0 0 0 0 0 0 0 0 0 0 0 0 0 0 0
0 0 0 0 0 0 0 0 0 0 0 0 0 0 0 0 0 0 0 0 0 0 0 0 0 0 0 0 0 0 0 0 0 0 0 0 0 0 0 0 0 0 0
0 0 0 0 0 0 0 0 0 0 0 0 0 0 0 0 0 0 0 0 0 0 0 0 0 0 0 0 0 0 0 0 0 0 0 0 0 0 0 0 0 0 0
0 0 0 0 0 0 0 0 0 0 0 0 0 0 0 0 0 0 0 0 0 0 0 0 0 0 0 0 0 0 0 0 0 0 0 0 0 0 0 0 0 0 0
0 0 0 0 0 0 0 0 0 0 0 0 0 0 0 0 0 0 0 0 0 0 0 0 0 0 0 0 0 0 0 0 0 0 0 0 0 0 0 0 0 0 0
0 0 0 0 0 0 0 0 0 0 0 0 0 0 0 0 0 0 0 0 0 0 0 0 0 0 0 0 0 0 0 0 0 0 0 0 0 0 0 0 0 0 0
Wind_Speed
6 5 5 5 5 5 4 4 4 3 3 3 3 3 3 3 3 3 3 3 4 3 3 4 3 3 3 2 2 2 2 3 3 1 1 1 2 2 2 2 2 2 2
6 6 5 5 5 5 4 4 4 4 3 4 4 4 3 3 3 3 3 3 3 3 2 3 2 3 3 2 2 2 2 2 3 2 1 1 1 1 1 2 2 2 1
7 6 6 5 5 5 5 4 4 4 3 3 4 4 3 3 3 3 3 3 3 3 3 3 2 3 2 2 2 2 1 2 2 2 1 1 1 1 2 2 2 2 2
7 7 7 6 6 6 5 5 5 5 4 4 3 3 3 3 3 3 3 2 2 2 2 2 2 3 3 2 2 2 2 2 2 2 1 0 1 1 1 1 2 2 2
7 7 7 6 5 5 5 5 4 4 5 4 3 3 3 3 3 4 3 3 3 2 2 1 2 3 4 3 3 2 3 2 2 1 1 1 1 1 1 1 1 2 2
8 8 7 6 6 6 6 5 5 4 4 4 4 4 3 2 5 7 5 4 3 3 2 1 1 1 2 3 4 4 5 4 3 2 1 1 1 1 1 1 0 1 2
8 7 7 7 6 6 6 6 5 5 4 4 4 4 3 3 6 7 8 5 4 3 3 2 1 1 2 2 2 2 1 2 4 4 3 3 2 3 2 1 1 1 3
7 7 7 7 7 6 6 6 5 4 4 4 4 4 3 3 5 7 8 4 3 3 3 3 3 2 2 3 2 1 1 1 2 2 3 4 3 3 3 3 3 1 2
8 8 8 8 7 7 7 6 5 4 4 4 4 4 4 3 5 6 6 3 2 2 2 2 3 3 4 4 3 2 1 3 3 2 3 3 3 3 3 2 1 1 2
8 8 7 7 8 8 8 6 4 4 4 4 4 3 4 3 4 5 6 3 2 1 1 2 3 4 4 5 4 3 3 4 2 1 1 2 2 2 3 3 3 2 1
6 6 6 7 7 7 6 4 4 4 4 3 3 2 2 3 3 4 6 3 3 2 2 2 2 4 4 5 5 4 5 3 2 1 1 2 2 2 2 2 3 3 3
5 6 6 6 6 6 6 4 4 5 4 3 2 1 1 1 2 3 5 5 5 3 3 2 2 3 4 4 3 3 4 2 1 1 1 2 2 3 3 3 4 4 5
6 5 5 5 4 5 6 5 4 4 3 3 3 2 1 1 2 3 4 5 5 3 3 3 3 3 3 3 3 3 2 2 1 2 3 4 3 3 3 2 3 3 4
6 5 4 5 4 4 4 4 4 4 4 3 3 3 2 1 1 1 1 2 2 2 1 1 1 1 1 2 2 2 1 2 3 4 4 3 2 2 2 2 2 2 3
5 4 4 4 4 3 3 2 4 4 5 5 4 3 3 2 4 4 3 2 2 2 1 1 1 1 1 1 2 2 2 2 3 3 3 3 3 3 3 2 2 2 3
5 4 3 3 3 3 3 2 3 3 4 5 4 4 2 2 1 2 2 2 3 3 3 1 1 1 2 2 3 3 2 3 3 4 4 4 4 4 4 3 3 3 4
6 5 4 4 3 3 3 4 2 3 4 3 2 2 2 1 1 2 2 2 2 4 2 1 1 2 2 2 3 3 3 3 3 3 4 4 4 4 4 4 4 4 5
5 5 4 3 3 3 3 3 3 3 1 1 1 0 0 1 2 2 3 4 2 1 0 1 2 2 2 2 3 3 3 3 2 3 3 4 4 4 4 5 4 5 6
4 3 3 3 3 3 3 3 2 3 2 1 1 2 2 2 2 2 3 2 1 1 1 1 2 2 2 2 3 3 3 3 3 3 3 4 4 4 5 5 5 7 7
3 5 5 4 3 3 3 3 2 2 2 1 1 0 1 2 2 1 1 0 0 1 1 1 2 2 2 2 2 2 3 3 4 3 4 4 4 4 5 6 6 6 6
3 4 6 5 3 3 3 3 2 2 2 1 0 0 2 2 1 0 0 0 1 1 1 1 2 2 2 2 2 3 3 3 3 3 4 4 4 5 5 5 6 6 6
4 3 3 3 3 3 3 3 2 2 2 1 0 1 2 2 1 1 0 1 1 1 1 1 1 2 2 2 2 2 3 4 4 4 4 5 5 5 5 5 5 6 6
4 4 4 3 3 4 3 2 2 2 2 1 1 1 1 1 1 1 0 1 1 1 1 1 1 2 2 2 2 2 3 4 4 5 5 5 5 5 5 6 7 7 7
4 4 4 3 3 3 3 2 2 2 2 2 2 1 1 1 1 1 1 1 1 1 1 1 1 2 3 3 2 2 3 4 4 4 6 6 6 6 6 6 7 8 8
4 4 3 3 3 3 3 2 2 2 2 2 2 2 1 1 1 1 1 1 2 2 3 3 2 2 4 5 4 4 6 8 8 6 5 5 6 7 7 8 7 8 8
4 4 3 3 3 3 3 3 2 2 2 2 2 1 1 1 1 1 1 1 2 2 3 3 3 4 5 5 5 7 9 10 10 10 6 5 6 6 7 7 9 8 9
Wind_Direction
170 168 160 165 163 155 153 163 162 155 152 150 148 132 119 105 101 98 93 93 93 83 79 92 87 86 80 68 78 87 91 111 123 290 316 333 13 9 359 352 355 360 360
174 166 168 166 160 157 165 170 162 156 154 151 149 135 130 124 116 115 116 107 110 111 108 99 91 94 81 71 80 84 93 112 131 150 299 341 337 317 340 348 356 357 335
170 165 165 168 168 172 174 171 162 154 144 141 142 142 147 144 134 128 127 126 132 139 139 129 122 110 98 86 90 92 90 88 101 133 190 295 315 345 11 352 351 343 328
169 169 174 179 177 177 170 164 162 155 149 153 156 155 154 149 143 137 130 127 125 125 132 140 142 143 150 138 111 114 109 94 87 95 100 322 310 338 39 354 338 332 322
170 176 184 181 173 165 160 163 159 155 158 158 148 146 147 145 155 150 143 135 128 118 107 130 153 150 149 149 141 150 130 111 98 86 76 30 351 349 281 271 294 312 304
174 182 180 173 167 166 166 163 156 157 157 150 155 155 153 161 157 156 149 143 143 145 147 145 141 144 157 159 151 150 148 144 151 144 163 193 246 228 214 196 193 6 310
178 178 174 174 172 172 166 159 164 168 159 158 167 161 168 181 161 155 150 144 151 163 171 177 171 146 146 138 135 121 165 174 163 160 171 207 214 214 171 159 191 201 241
177 177 176 172 172 169 163 169 174 166 163 168 173 173 176 195 175 163 155 144 149 173 185 188 190 206 190 163 152 136 295 276 233 190 193 210 209 198 181 186 198 221 289
180 183 180 173 171 170 174 180 176 166 169 173 172 172 178 209 193 177 158 141 153 199 208 202 199 211 219 179 158 182 268 295 295 252 235 240 237 207 157 109 87 52 314
188 186 178 173 173 178 185 182 171 168 176 168 171 180 182 201 199 182 166 153 174 222 252 250 234 219 209 185 177 184 221 254 266 320 308 303 281 258 214 182 179 180 236
177 167 168 173 177 180 177 169 159 161 159 162 171 186 197 208 207 188 174 167 188 204 229 254 253 227 215 206 191 197 221 219 213 224 261 291 305 294 270 234 204 190 203
152 157 167 170 172 166 158 159 158 156 157 165 164 192 249 248 225 211 195 192 185 191 224 236 237 226 222 221 212 224 228 210 175 217 262 274 273 272 267 252 236 228 227
144 156 162 161 161 155 156 158 153 155 162 171 171 197 237 252 258 235 214 210 207 205 222 221 227 236 243 247 248 240 221 194 189 228 249 256 250 257 270 281 280 263 263
143 152 153 150 148 145 148 153 158 167 169 174 181 197 218 239 254 250 234 230 231 226 237 259 314 306 275 284 291 274 237 211 211 233 250 260 265 269 264 253 262 272 280
133 132 131 134 142 140 134 146 163 177 176 175 186 184 181 219 240 218 193 204 203 203 146 73 23 346 314 303 297 286 272 265 254 254 256 268 270 268 268 256 245 247 253
129 128 130 133 132 132 127 90 57 97 132 150 158 162 189 211 221 200 194 192 184 152 127 157 237 247 253 260 265 272 264 257 254 253 254 255 259 262 271 269 251 247 259
133 137 134 133 134 135 134 134 115 49 60 87 120 143 146 122 114 123 128 121 116 129 132 210 240 251 258 261 262 264 269 269 266 262 263 265 265 267 269 271 266 263 265
128 133 133 135 139 140 142 146 144 142 126 14 347 315 139 81 84 101 112 98 67 83 204 240 254 261 265 269 271 274 279 287 278 270 270 272 272 273 275 272 269 265 269
122 125 128 127 127 128 130 131 130 135 138 136 50 16 29 58 59 68 102 109 159 231 251 266 271 275 275 275 277 279 280 281 283 280 277 276 275 273 274 274 274 276 271
115 119 121 120 115 112 114 117 118 121 123 121 127 130 74 73 63 49 69 98 202 266 273 274 282 285 284 282 285 290 294 292 292 287 285 285 281 276 276 279 280 280 275
107 110 108 108 112 117 114 114 116 117 121 124 164 132 127 124 149 153 133 274 257 266 273 277 284 293 294 294 293 296 296 295 293 291 292 291 289 286 283 281 281 280 281
107 106 108 114 114 111 113 116 118 121 126 124 76 54 102 91 82 78 43 307 287 280 278 276 292 297 296 297 298 301 303 304 303 301 299 297 294 289 287 285 285 285 284
104 105 102 101 105 105 102 102 111 115 110 100 89 72 75 75 65 56 351 324 334 338 337 339 334 329 329 325 318 307 303 302 300 301 300 298 296 293 289 286 285 286 285
104 108 109 107 103 105 108 101 96 99 100 95 88 86 85 74 51 26 7 1 3 358 355 350 346 340 340 337 329 321 312 309 309 304 300 297 296 293 290 287 284 282 281
100 102 104 107 106 106 103 96 91 89 86 84 82 78 70 64 48 28 12 7 4 357 350 344 337 333 328 323 320 318 316 317 315 311 302 296 296 295 293 290 289 288 285
102 103 102 102 103 104 104 101 96 91 88 81 78 78 72 58 34 12 7 4 349 340 336 333 329 326 323 322 320 320 320 320 319 315 308 296 294 294 296 292 291 288 287